• In Netherlands
  • List of Countries
  • For 7 days
  • Water Temperature
  • Satellite Maps
  • Weather Map
  • Weather Widgets
  • user-avatar
    Login

    Hourly Weather Tarin Kowt

    Today, 16 December, Saturday

    Time Temperature Precipitation Wind Pressure Humidity
    00:00 +1°C° 0 mm 2 mps 619 mmHg 37%
    01:00 -1°C° 0 mm 2 mps 619 mmHg 37%
    02:00 -1°C° 0 mm 2 mps 619 mmHg 38%
    03:00 -1°C° 0 mm 2 mps 619 mmHg 39%
    04:00 -1°C° 0 mm 2 mps 619 mmHg 40%
    05:00 -1°C° 0 mm 2 mps 619 mmHg 40%
    06:00 -1°C° 0 mm 2 mps 619 mmHg 40%
    07:00 -1°C° 0 mm 2 mps 619 mmHg 40%
    08:00 +2°C° 0 mm 2 mps 620 mmHg 35%
    09:00 +4°C° 0 mm 2 mps 621 mmHg 31%
    10:00 +6°C° 0 mm 2 mps 621 mmHg 26%
    11:00 +8°C° 0 mm 1 mps 621 mmHg 24%
    12:00 +9°C° 0 mm 1 mps 621 mmHg 22%
    13:00 +10°C° 0 mm 1 mps 621 mmHg 21%
    14:00 +9°C° 0 mm 1 mps 621 mmHg 22%
    15:00 +9°C° 0 mm 1 mps 620 mmHg 22%
    16:00 +9°C° 0 mm 1 mps 620 mmHg 23%
    17:00 +7°C° 0 mm 1 mps 620 mmHg 25%
    18:00 +6°C° 0 mm 1 mps 620 mmHg 27%
    19:00 +5°C° 0 mm 1 mps 620 mmHg 29%
    20:00 +5°C° 0 mm 1 mps 620 mmHg 29%
    21:00 +5°C° 0 mm 1 mps 620 mmHg 30%
    22:00 +3°C° 0 mm 2 mps 620 mmHg 30%
    23:00 +3°C° 0 mm 2 mps 620 mmHg 31%

    Tomorrow, 17 December, Sunday

    Time Temperature Precipitation Wind Pressure Humidity
    00:00 +3°C° 0 mm 2 mps 620 mmHg 31%
    01:00 +3°C° 0 mm 2 mps 620 mmHg 31%
    02:00 +3°C° 0 mm 2 mps 620 mmHg 32%
    03:00 +2°C° 0 mm 2 mps 619 mmHg 32%
    04:00 +2°C° 0 mm 2 mps 619 mmHg 32%
    05:00 +2°C° 0 mm 2 mps 619 mmHg 32%
    06:00 +2°C° 0 mm 2 mps 620 mmHg 31%
    07:00 +3°C° 0 mm 2 mps 620 mmHg 31%
    08:00 +5°C° 0 mm 2 mps 621 mmHg 27%
    09:00 +7°C° 0 mm 2 mps 622 mmHg 24%
    10:00 +9°C° 0 mm 2 mps 623 mmHg 20%
    11:00 +9°C° 0 mm 2 mps 623 mmHg 19%
    12:00 +11°C° 0 mm 1 mps 622 mmHg 19%
    13:00 +12°C° 0 mm 1 mps 622 mmHg 18%
    14:00 +11°C° 0 mm 1 mps 622 mmHg 19%
    15:00 +11°C° 0 mm 1 mps 621 mmHg 20%
    16:00 +11°C° 0 mm 1 mps 621 mmHg 21%
    17:00 +10°C° 0 mm 1 mps 621 mmHg 23%
    18:00 +9°C° 0 mm 1 mps 621 mmHg 25%
    19:00 +7°C° 0 mm 2 mps 621 mmHg 27%
    20:00 +6°C° 0 mm 2 mps 621 mmHg 28%
    21:00 +6°C° 0 mm 2 mps 621 mmHg 30%
    22:00 +6°C° 0 mm 2 mps 621 mmHg 31%
    23:00 +5°C° 0 mm 2 mps 621 mmHg 33%

    Day after tomorrow, 18 December, Monday

    Time Temperature Precipitation Wind Pressure Humidity
    00:00 +5°C° 0 mm 2 mps 620 mmHg 35%
    01:00 +4°C° 0 mm 2 mps 620 mmHg 37%
    02:00 +4°C° 0 mm 2 mps 620 mmHg 38%
    03:00 +4°C° 0 mm 2 mps 620 mmHg 39%
    04:00 +4°C° 0 mm 2 mps 620 mmHg 41%
    05:00 +4°C° 0 mm 2 mps 620 mmHg 41%
    06:00 +4°C° 0 mm 2 mps 620 mmHg 42%
    07:00 +4°C° 0 mm 2 mps 620 mmHg 43%
    08:00 +6°C° 0 mm 2 mps 621 mmHg 38%
    09:00 +7°C° 0 mm 2 mps 622 mmHg 33%
    10:00 +9°C° 0 mm 2 mps 623 mmHg 28%
    11:00 +10°C° 0 mm 2 mps 623 mmHg 26%
    12:00 +12°C° 0 mm 1 mps 622 mmHg 23%
    13:00 +12°C° 0 mm 1 mps 622 mmHg 20%
    14:00 +12°C° 0 mm 1 mps 622 mmHg 21%
    15:00 +12°C° 0 mm 1 mps 621 mmHg 22%
    16:00 +11°C° 0 mm 1 mps 621 mmHg 22%
    17:00 +10°C° 0 mm 1 mps 621 mmHg 24%
    18:00 +9°C° 0 mm 1 mps 620 mmHg 27%
    19:00 +7°C° 0 mm 1 mps 620 mmHg 29%
    20:00 +7°C° 0 mm 1 mps 620 mmHg 30%
    21:00 +7°C° 0 mm 1 mps 620 mmHg 30%
    22:00 +7°C° 0 mm 1 mps 620 mmHg 31%
    23:00 +5°C° 0 mm 2 mps 620 mmHg 32%

    19 December, Tuesday

    Time Temperature Precipitation Wind Pressure Humidity
    00:00 +5°C° 0 mm 2 mps 620 mmHg 33%
    01:00 +5°C° 0 mm 2 mps 620 mmHg 33%
    02:00 +5°C° 0 mm 2 mps 620 mmHg 34%
    03:00 +4°C° 0 mm 2 mps 619 mmHg 35%
    04:00 +4°C° 0 mm 2 mps 619 mmHg 35%
    05:00 +4°C° 0 mm 2 mps 620 mmHg 36%
    06:00 +4°C° 0 mm 2 mps 620 mmHg 36%
    07:00 +4°C° 0 mm 2 mps 620 mmHg 36%
    08:00 +6°C° 0 mm 2 mps 621 mmHg 32%
    09:00 +8°C° 0 mm 2 mps 622 mmHg 28%
    10:00 +9°C° 0 mm 2 mps 623 mmHg 24%
    11:00 +11°C° 0 mm 1 mps 623 mmHg 22%
    12:00 +12°C° 0 mm 1 mps 622 mmHg 21%
    13:00 +12°C° 0 mm 1 mps 622 mmHg 19%
    14:00 +12°C° 0 mm 1 mps 622 mmHg 20%
    15:00 +11°C° 0 mm 1 mps 621 mmHg 21%
    16:00 +11°C° 0 mm 1 mps 621 mmHg 22%
    17:00 +10°C° 0 mm 1 mps 621 mmHg 24%
    18:00 +8°C° 0 mm 1 mps 620 mmHg 26%
    19:00 +7°C° 0 mm 1 mps 620 mmHg 28%
    20:00 +7°C° 0 mm 1 mps 620 mmHg 30%
    21:00 +6°C° 0 mm 1 mps 620 mmHg 31%
    22:00 +6°C° 0 mm 1 mps 620 mmHg 32%
    23:00 +5°C° 0 mm 1 mps 620 mmHg 33%

    20 December, Wednesday

    Time Temperature Precipitation Wind Pressure Humidity
    00:00 +5°C° 0 mm 1 mps 620 mmHg 34%
    01:00 +5°C° 0 mm 1 mps 619 mmHg 35%
    02:00 +4°C° 0 mm 1 mps 619 mmHg 36%
    03:00 +3°C° 0 mm 2 mps 619 mmHg 37%
    04:00 +3°C° 0 mm 2 mps 619 mmHg 38%
    05:00 +3°C° 0 mm 2 mps 620 mmHg 39%
    06:00 +2°C° 0 mm 2 mps 620 mmHg 39%
    07:00 +2°C° 0 mm 2 mps 620 mmHg 40%
    08:00 +5°C° 0 mm 1 mps 621 mmHg 35%
    09:00 +8°C° 0 mm 1 mps 623 mmHg 30%
    10:00 +10°C° 0 mm 1 mps 624 mmHg 25%
    11:00 +10°C° 0 mm 1 mps 623 mmHg 24%
    12:00 +11°C° 0 mm 1 mps 623 mmHg 23%
    13:00 +12°C° 0 mm 1 mps 623 mmHg 22%
    14:00 +11°C° 0 mm 1 mps 623 mmHg 23%
    15:00 +11°C° 0 mm 1 mps 622 mmHg 23%
    16:00 +11°C° 0 mm 1 mps 622 mmHg 24%
    17:00 +9°C° 0 mm 1 mps 622 mmHg 27%
    18:00 +8°C° 0 mm 1 mps 622 mmHg 30%
    19:00 +5°C° 0 mm 0 mps 622 mmHg 33%
    20:00 +5°C° 0 mm 0 mps 622 mmHg 34%
    21:00 +4°C° 0 mm 0 mps 622 mmHg 35%
    22:00 +5°C° 0 mm 1 mps 622 mmHg 36%
    23:00 +5°C° 0 mm 1 mps 621 mmHg 36%

    21 December, Thursday

    Time Temperature Precipitation Wind Pressure Humidity
    00:00 +4°C° 0 mm 1 mps 621 mmHg 36%
    01:00 +4°C° 0 mm 1 mps 621 mmHg 36%
    02:00 +4°C° 0 mm 1 mps 621 mmHg 36%
    03:00 +3°C° 0 mm 1 mps 620 mmHg 36%
    04:00 +3°C° 0 mm 1 mps 620 mmHg 37%
    05:00 +3°C° 0 mm 1 mps 620 mmHg 36%
    06:00 +3°C° 0 mm 1 mps 621 mmHg 36%
    07:00 +3°C° 0 mm 1 mps 621 mmHg 36%
    08:00 +5°C° 0 mm 1 mps 622 mmHg 31%
    09:00 +8°C° 0 mm 1 mps 623 mmHg 26%
    10:00 +10°C° 0 mm 1 mps 624 mmHg 21%
    11:00 +11°C° 0 mm 1 mps 624 mmHg 20%
    12:00 +12°C° 0 mm 1 mps 623 mmHg 18%
    13:00 +13°C° 0 mm 1 mps 623 mmHg 17%
    14:00 +12°C° 0 mm 1 mps 622 mmHg 18%
    15:00 +12°C° 0 mm 1 mps 622 mmHg 19%
    16:00 +12°C° 0 mm 1 mps 621 mmHg 20%
    17:00 +10°C° 0 mm 1 mps 621 mmHg 23%
    18:00 +9°C° 0 mm 1 mps 621 mmHg 26%
    19:00 +7°C° 0 mm 1 mps 620 mmHg 28%
    20:00 +6°C° 0 mm 0 mps 620 mmHg 29%
    21:00 +5°C° 0 mm 0 mps 620 mmHg 30%
    22:00 +5°C° 0 mm 0 mps 620 mmHg 31%
    23:00 +4°C° 0 mm 0 mps 619 mmHg 32%
    Show more